When you browse on this site, cookies collect data to enhance your experience and personalize the content and advertising you see.
Visit our Privacy Policy to learn more. By continuing to use the site, you agree to this use of cookies and data.
  • En España
  • Lista de países
  • Para 7 días
  • Temperatura del agua
  • Mapa Satelital
  • El tiempo en el mapa
  • Informadores
  • user-avatar
    Iniciar sesión

    Tiempo cada hora Bolshaya Dubrovka

    Hoy, 22 Mayo, Miércoles

    Tiempo Temperatura Precipitaciones Viento Presión Humedad
    00:00 +14°C° 0 mm 2 mps 743 mmHg 93%
    01:00 +14°C° 0 mm 2 mps 743 mmHg 94%
    02:00 +14°C° 0 mm 1 mps 742 mmHg 94%
    03:00 +14°C° 0 mm 1 mps 742 mmHg 93%
    04:00 +14°C° 0 mm 2 mps 742 mmHg 92%
    05:00 +14°C° 0 mm 2 mps 742 mmHg 92%
    06:00 +16°C° 0 mm 2 mps 742 mmHg 86%
    07:00 +18°C° 0 mm 2 mps 742 mmHg 80%
    08:00 +19°C° 0 mm 2 mps 742 mmHg 73%
    09:00 +20°C° 0 mm 2 mps 742 mmHg 69%
    10:00 +21°C° 0 mm 2 mps 741 mmHg 66%
    11:00 +23°C° 0 mm 2 mps 741 mmHg 63%
    12:00 +24°C° 0.6 mm 2 mps 741 mmHg 63%
    13:00 +24°C° 0.6 mm 2 mps 741 mmHg 63%
    14:00 +24°C° 0.6 mm 2 mps 740 mmHg 63%
    15:00 +24°C° 0.7 mm 2 mps 740 mmHg 65%
    16:00 +24°C° 0.7 mm 2 mps 740 mmHg 67%
    17:00 +24°C° 0.7 mm 1 mps 740 mmHg 70%
    18:00 +22°C° 0.6 mm 1 mps 740 mmHg 75%
    19:00 +20°C° 0.6 mm 1 mps 739 mmHg 80%
    20:00 +19°C° 0.6 mm 1 mps 739 mmHg 85%
    21:00 +18°C° 0 mm 1 mps 739 mmHg 86%
    22:00 +18°C° 0 mm 1 mps 739 mmHg 87%
    23:00 +16°C° 0 mm 1 mps 739 mmHg 88%

    Mañana, 23 Mayo, Jueves

    Tiempo Temperatura Precipitaciones Viento Presión Humedad
    00:00 +16°C° 0 mm 1 mps 739 mmHg 88%
    01:00 +15°C° 0 mm 1 mps 739 mmHg 89%
    02:00 +15°C° 0 mm 1 mps 739 mmHg 90%
    03:00 +15°C° 0 mm 1 mps 739 mmHg 89%
    04:00 +15°C° 0 mm 1 mps 739 mmHg 89%
    05:00 +15°C° 0 mm 2 mps 738 mmHg 89%
    06:00 +17°C° 0 mm 2 mps 738 mmHg 85%
    07:00 +18°C° 0 mm 2 mps 739 mmHg 81%
    08:00 +20°C° 0 mm 2 mps 739 mmHg 76%
    09:00 +21°C° 0 mm 3 mps 739 mmHg 71%
    10:00 +24°C° 0 mm 3 mps 739 mmHg 65%
    11:00 +25°C° 0 mm 3 mps 739 mmHg 59%
    12:00 +25°C° 0.2 mm 4 mps 738 mmHg 60%
    13:00 +25°C° 0.2 mm 4 mps 738 mmHg 60%
    14:00 +25°C° 0.2 mm 4 mps 738 mmHg 61%
    15:00 +25°C° 0.4 mm 4 mps 738 mmHg 64%
    16:00 +25°C° 0.4 mm 3 mps 738 mmHg 67%
    17:00 +24°C° 0.4 mm 2 mps 738 mmHg 71%
    18:00 +23°C° 0.1 mm 2 mps 738 mmHg 76%
    19:00 +20°C° 0.1 mm 2 mps 738 mmHg 81%
    20:00 +18°C° 0.1 mm 2 mps 738 mmHg 86%
    21:00 +18°C° 0 mm 1 mps 738 mmHg 88%
    22:00 +18°C° 0 mm 1 mps 739 mmHg 90%
    23:00 +16°C° 0 mm 1 mps 739 mmHg 92%

    Pasado mañana, 24 Mayo, Viernes

    Tiempo Temperatura Precipitaciones Viento Presión Humedad
    00:00 +15°C° 0 mm 1 mps 739 mmHg 93%
    01:00 +15°C° 0 mm 1 mps 739 mmHg 94%
    02:00 +15°C° 0 mm 2 mps 739 mmHg 95%
    03:00 +15°C° 0 mm 2 mps 739 mmHg 96%
    04:00 +15°C° 0 mm 2 mps 739 mmHg 96%
    05:00 +15°C° 0 mm 2 mps 740 mmHg 97%
    06:00 +14°C° 0 mm 3 mps 740 mmHg 94%
    07:00 +16°C° 0 mm 3 mps 740 mmHg 91%
    08:00 +17°C° 0 mm 3 mps 740 mmHg 89%
    09:00 +17°C° 0 mm 3 mps 740 mmHg 86%
    10:00 +18°C° 0 mm 3 mps 740 mmHg 84%
    11:00 +18°C° 0 mm 3 mps 740 mmHg 82%
    12:00 +19°C° 0 mm 3 mps 740 mmHg 81%
    13:00 +19°C° 0 mm 3 mps 740 mmHg 79%
    14:00 +19°C° 0 mm 3 mps 740 mmHg 78%
    15:00 +20°C° 0 mm 3 mps 740 mmHg 78%
    16:00 +20°C° 0 mm 3 mps 740 mmHg 77%
    17:00 +20°C° 0 mm 3 mps 739 mmHg 77%
    18:00 +19°C° 0.2 mm 3 mps 739 mmHg 82%
    19:00 +18°C° 0.2 mm 3 mps 739 mmHg 88%
    20:00 +17°C° 0.2 mm 2 mps 739 mmHg 93%
    21:00 +16°C° 0.6 mm 2 mps 739 mmHg 94%
    22:00 +16°C° 0.6 mm 3 mps 739 mmHg 95%
    23:00 +16°C° 0.6 mm 3 mps 739 mmHg 96%

    25 Mayo, Sábado

    Tiempo Temperatura Precipitaciones Viento Presión Humedad
    00:00 +14°C° 0.7 mm 3 mps 739 mmHg 97%
    01:00 +15°C° 0.7 mm 2 mps 739 mmHg 97%
    02:00 +15°C° 0.7 mm 2 mps 738 mmHg 98%
    03:00 +15°C° 0.1 mm 2 mps 738 mmHg 97%
    04:00 +15°C° 0.1 mm 2 mps 738 mmHg 97%
    05:00 +15°C° 0.1 mm 2 mps 738 mmHg 97%
    06:00 +16°C° 0.1 mm 2 mps 738 mmHg 95%
    07:00 +16°C° 0.1 mm 1 mps 738 mmHg 93%
    08:00 +18°C° 0.1 mm 1 mps 738 mmHg 91%
    09:00 +18°C° 0.5 mm 1 mps 737 mmHg 89%
    10:00 +19°C° 0.5 mm 1 mps 737 mmHg 88%
    11:00 +20°C° 0.5 mm 1 mps 737 mmHg 86%
    12:00 +20°C° 0.7 mm 1 mps 737 mmHg 86%
    13:00 +20°C° 0.7 mm 1 mps 736 mmHg 85%
    14:00 +20°C° 0.7 mm 1 mps 736 mmHg 84%
    15:00 +20°C° 0.9 mm 1 mps 736 mmHg 86%
    16:00 +19°C° 0.9 mm 1 mps 736 mmHg 87%
    17:00 +18°C° 0.9 mm 2 mps 736 mmHg 89%
    18:00 +17°C° 0.1 mm 2 mps 736 mmHg 90%
    19:00 +17°C° 0.1 mm 2 mps 736 mmHg 91%
    20:00 +16°C° 0.1 mm 1 mps 736 mmHg 92%
    21:00 +15°C° 0 mm 2 mps 736 mmHg 92%
    22:00 +13°C° 0 mm 3 mps 736 mmHg 91%
    23:00 +12°C° 0 mm 3 mps 736 mmHg 91%

    26 Mayo, Domingo

    Tiempo Temperatura Precipitaciones Viento Presión Humedad
    00:00 +11°C° 0 mm 3 mps 736 mmHg 93%
    01:00 +11°C° 0 mm 3 mps 736 mmHg 94%
    02:00 +10°C° 0 mm 2 mps 736 mmHg 96%
    03:00 +10°C° 0 mm 2 mps 737 mmHg 96%
    04:00 +10°C° 0 mm 2 mps 737 mmHg 96%
    05:00 +9°C° 0 mm 3 mps 737 mmHg 95%
    06:00 +11°C° 0 mm 3 mps 737 mmHg 90%
    07:00 +12°C° 0 mm 3 mps 737 mmHg 86%
    08:00 +13°C° 0 mm 3 mps 738 mmHg 81%
    09:00 +14°C° 0 mm 3 mps 738 mmHg 74%
    10:00 +15°C° 0 mm 4 mps 738 mmHg 68%
    11:00 +17°C° 0 mm 4 mps 738 mmHg 61%
    12:00 +18°C° 0 mm 4 mps 737 mmHg 60%
    13:00 +18°C° 0 mm 4 mps 737 mmHg 59%
    14:00 +19°C° 0 mm 5 mps 737 mmHg 58%
    15:00 +18°C° 0.1 mm 4 mps 737 mmHg 61%
    16:00 +18°C° 0.1 mm 4 mps 737 mmHg 64%
    17:00 +17°C° 0.1 mm 4 mps 737 mmHg 68%
    18:00 +14°C° 0 mm 3 mps 737 mmHg 76%
    19:00 +14°C° 0 mm 2 mps 736 mmHg 84%
    20:00 +12°C° 0 mm 2 mps 736 mmHg 92%
    21:00 +12°C° 0.2 mm 2 mps 736 mmHg 92%
    22:00 +12°C° 0.2 mm 2 mps 736 mmHg 92%
    23:00 +11°C° 0.2 mm 3 mps 736 mmHg 92%

    27 Mayo, Lunes

    Tiempo Temperatura Precipitaciones Viento Presión Humedad
    00:00 +11°C° 0.2 mm 3 mps 736 mmHg 93%
    01:00 +10°C° 0.2 mm 3 mps 736 mmHg 94%
    02:00 +9°C° 0.2 mm 3 mps 735 mmHg 95%
    03:00 +9°C° 0 mm 3 mps 736 mmHg 95%
    04:00 +8°C° 0 mm 4 mps 736 mmHg 95%
    05:00 +7°C° 0 mm 4 mps 736 mmHg 94%
    06:00 +8°C° 0.1 mm 5 mps 736 mmHg 89%
    07:00 +8°C° 0.1 mm 6 mps 737 mmHg 83%
    08:00 +9°C° 0.1 mm 6 mps 737 mmHg 78%
    09:00 +10°C° 0.2 mm 7 mps 737 mmHg 75%
    10:00 +10°C° 0.2 mm 7 mps 738 mmHg 72%
    11:00 +11°C° 0.2 mm 7 mps 738 mmHg 70%
    12:00 +10°C° 0.1 mm 7 mps 738 mmHg 73%
    13:00 +10°C° 0.1 mm 7 mps 739 mmHg 75%
    14:00 +10°C° 0.1 mm 7 mps 739 mmHg 78%
    15:00 +10°C° 0 mm 6 mps 739 mmHg 77%
    16:00 +11°C° 0 mm 6 mps 740 mmHg 75%
    17:00 +13°C° 0 mm 6 mps 740 mmHg 73%
    18:00 +12°C° 0 mm 5 mps 741 mmHg 77%
    19:00 +11°C° 0 mm 4 mps 741 mmHg 81%
    20:00 +10°C° 0 mm 3 mps 741 mmHg 85%
    21:00 +9°C° 0 mm 3 mps 742 mmHg 87%
    22:00 +8°C° 0 mm 3 mps 742 mmHg 90%
    23:00 +7°C° 0 mm 3 mps 743 mmHg 93%
    Mostrar más